Regional Weather Roundup
Issued by NWS San Angelo, TX

Home | Current Version | Previous Version | Text Only | Print | Product List | Glossary On
Versions: 1 2 3 4 5 6 7 8 9 10 11 12 13 14 15 16 17 18 19 20 21 22 23 24 25 26 27 28 29 30 31 32 33 34 35 36 37 38 39 40 41 42 43 44 45 46 47 48 49 50
000
ASUS44 KSJT 220510
RWRSJT
WEST CENTRAL TEXAS REGIONAL WEATHER ROUNDUP
NATIONAL WEATHER SERVICE SAN ANGELO TX
1200 AM CDT WED OCT 22 2014

NOTE: "FAIR" INDICATES FEW OR NO CLOUDS BELOW 12,000 FEET WITH NO
SIGNIFICANT WEATHER AND/OR OBSTRUCTIONS TO VISIBILITY.

TXZ049-054-064>066-071>073-076>078-098-099-113-114-127-128-139-140-
154-155-168>170-220600
...LOCATIONS ACROSS WEST CENTRAL TEXAS...

CITY           SKY/WX    TMP DP  RH WIND       PRES   REMARKS
SAN ANGELO     CLOUDY    71  54  54 SE8       30.06S
ABILENE        PTCLDY    65  50  58 SE7       30.08S
DYESS AFB      PTCLDY    66  51  57 SE10      30.07R
JUNCTION       CLOUDY    70  52  52 E8        30.07F
SWEETWATER     PTCLDY    63  51  64 SE8       30.11S
BROWNWOOD      MOCLDY    64  48  55 SE5       30.08S
COLEMAN        MOCLDY    67  52  57 S8        30.08S
SONORA         LGT RAIN  66  63  88 CALM      30.11S
OZONA          FAIR      64  63  94 E3        30.09F
BRADY          CLEAR     64  50  59 SE5       30.08S
$$

TEXAS PANHANDLE/OKLAHOMA PANHANDLE

CITY           SKY/WX    TMP DP  RH WIND       PRES   REMARKS
AMARILLO       CLEAR     61  50  67 S13       30.09S
BORGER         CLEAR     63  47  55 S13       30.06S
CANADIAN       CLEAR     64  52  65 S12       30.05S
DALHART        CLOUDY    59  52  77 SW8       30.08S
DUMAS          PTCLDY    54  46  74 S8        30.07S
GUYMON         NOT AVBL
HEREFORD       MOCLDY    57  55  94 SE5       30.10F
PAMPA          CLEAR     60  48  65 S12       30.09R
PERRYTON       CLEAR     59  49  70 S9        30.05S
$$

SOUTHERN PANHANDLE/SOUTH PLAINS/ROLLING PLAINS

CITY           SKY/WX    TMP DP  RH WIND       PRES   REMARKS
LUBBOCK        CLOUDY    65  51  60 S9        30.09S
SNYDER         PTCLDY    62  51  67 E5        30.08F
CHILDRESS      CLEAR     60  49  66 SE8       30.06S
SEMINOLE       CLOUDY    62  59  91 CALM      30.10S
$$

PERMIAN BASIN

CITY           SKY/WX    TMP DP  RH WIND       PRES   REMARKS
MIDLAND        CLOUDY    68  57  68 S7        30.07F
ODESSA         CLOUDY    65  58  78 S5        30.08F
WINK           CLOUDY    65  62  90 SE6       30.06R
$$

FAR WEST/SOUTHWEST MOUNTAINS/TRANS PECOS

CITY           SKY/WX    TMP DP  RH WIND       PRES   REMARKS
ALPINE         CLOUDY    60  56  87 CALM      30.17S
DRYDEN           N/A     66  64  93 CALM      30.04F
EL PASO        PTCLDY    62  54  74 E5        30.05R
FORT STOCKTON  PTCLDY    61  59  93 SE5       30.07S
GUADALUPE PASS FOG       55  55 100 NE18      30.15R VSB 1/4
MARFA          CLOUDY    55  55 100 E6        30.14F
PECOS          MOCLDY    63  60  88 E6        30.05S
$$

DALLAS/FORT WORTH METROPLEX

CITY           SKY/WX    TMP DP  RH WIND       PRES   REMARKS
DFW AIRPORT    CLEAR     67  58  72 SE5       30.07R
FTW MEACHAM    CLEAR     67  58  72 SE7       30.06S
DAL-EXECUTIVE  CLEAR     65  58  78 SE3       30.07R
GRAND PRAIRIE  CLEAR     68  59  73 CALM      30.08S
ADDISON        CLEAR     68  62  82 CALM      30.09S
MESQUITE       CLEAR     64  59  85 CALM      30.07S
LANCASTER      CLEAR     60  54  80 CALM      30.08S
$$

NORTH CENTRAL TEXAS

CITY           SKY/WX    TMP DP  RH WIND       PRES   REMARKS
SHRMAN/DENISON CLEAR     68  62  81 SE7       30.08S
GAINESVILLE    CLEAR     63  57  82 CALM      30.10S
BRIDGEPORT     CLEAR     59  54  83 CALM      30.09F
DENTON         CLEAR     64  59  83 SE3       30.07S
WAXAHACHIE     CLEAR     64  58  81 CALM      30.09S
GRANBURY       PTCLDY    62  54  75 CALM      30.09S
$$

WESTERN NORTH TEXAS

CITY           SKY/WX    TMP DP  RH WIND       PRES   REMARKS
WICHITA FALLS  CLEAR     61  51  70 S9        30.06S
VERNON         CLEAR     64  52  63 SE8       30.06S
BRECKENRIDGE   MOCLDY    66  49  54 SE8       30.06F
COMANCHE       MOCLDY    63  52  68 SE5       30.09S
$$

CENTRAL AND SOUTH CENTRAL TEXAS

CITY           SKY/WX    TMP DP  RH WIND       PRES   REMARKS
AUSTIN/BERGSTM MOCLDY    60  55  83 CALM      30.05S
WACO           PTCLDY    65  58  78 CALM      30.07S
HILLSBORO      PTCLDY    67  58  71 E6        30.07F
TEMPLE         PTCLDY    64  54  68 E6        30.06S
KILLEEN-GRAY   MOCLDY    70  54  56 E7        30.06F
FORT HOOD      MOCLDY    66  57  72 CALM      30.07S
GEORGETOWN     MOCLDY    61  54  77 CALM      30.07R
LAGO VISTA     NOT AVBL
SAN MARCOS     MOCLDY    63  45  51 CALM      30.06S
NEW BRAUNFELS  MOCLDY    64  48  56 CALM      30.04S
RANDOLPH AFB   PTCLDY    66  48  52 E6        30.05S
SAN ANTONIO    MOCLDY    70  48  45 E5        30.05S
STINSON        PTCLDY    70  48  45 E6        30.03S
PLEASANTON     NOT AVBL
LA GRANGE      PTCLDY    64  58  82 CALM      30.03S
GIDDINGS       PTCLDY    66  57  72 E5        30.08F
$$

EAST TEXAS

CITY           SKY/WX    TMP DP  RH WIND       PRES   REMARKS
PARIS          CLEAR     64  55  72 CALM      30.09S
CLARKSVILLE    NOT AVBL
TYLER          CLEAR     66  61  84 CALM      30.07S
LONGVIEW       CLEAR     63  60  90 CALM      30.06S
PALESTINE      CLEAR     65  62  91 CALM      30.08S
NACOGDOCHES    CLEAR     59  55  88 CALM      30.07S
$$

TEXAS HILL COUNTRY AND EDWARDS PLATEAU

CITY           SKY/WX    TMP DP  RH WIND       PRES   REMARKS
LLANO            N/A    N/A N/A N/A MISG        N/A
HORSESHOE BAY  FAIR      64  50  60 S3        30.07F
KERRVILLE      CLOUDY    65  47  52 E3        30.08S
FREDERICKSBRG  CLOUDY    63  51  66 CALM      30.08F
ROCKSPRINGS    CLOUDY    68  55  64 CALM      30.10S
HONDO          MOCLDY    65  49  56 NE6       30.06S
UVALDE         CLOUDY    75  52  43 E9        30.04S
DEL RIO        CLOUDY    70  68  93 CALM      30.01S FOG
$$

SOUTHEAST TEXAS

CITY           SKY/WX    TMP DP  RH WIND       PRES   REMARKS
COLLEGE STN    PTCLDY    66  59  78 CALM      30.05S
CALDWELL       PTCLDY    63  59  88 CALM      30.08F
CROCKETT       CLEAR     63  61  94 NE3       30.09S FOG
BRENHAM        PTCLDY    66  59  78 CALM      30.05F
HUNTSVILLE     CLEAR     64  60  87 CALM      30.06S
CONROE         CLEAR     59  57  93 CALM      30.05F
HOUSTON BUSH   PTCLDY    65  61  87 CALM      30.04F
HOUSTON HOBBY  PTCLDY    66  60  81 CALM      30.02F
PERLAND        CLEAR     66  61  84 CALM      30.04F
WHARTON        PTCLDY    62  55  79 NE3       30.04S
$$

THE UPPER TEXAS COAST

CITY           SKY/WX    TMP DP  RH WIND       PRES   REMARKS
ORANGE         CLEAR    N/A N/A N/A CALM      30.05F HAZE
PORT ARTHUR    CLEAR     65  62  90 N3        30.03F
GALVESTON      CLEAR     71  66  84 NE6       30.04S HAZE
ANGLETON       CLEAR     60  60 100 N3        30.03S
BAY CITY         N/A     62  60  94 NE5       30.02F
$$

TEXAS COASTAL BEND, RIO GRANDE PLAINS DEEP SOUTH TEXAS

CITY           SKY/WX    TMP DP  RH WIND       PRES   REMARKS
VICTORIA       CLEAR     60  54  80 CALM      30.04S
BEEVILLE       FAIR      69  63  79 E5        30.02S
ROCKPORT       PTCLDY    75  64  68 E12       30.00F
PORT ARANSAS   PTCLDY    75  65  69 E13       29.99F
PORT LAVACA    CLEAR     68  60  75 E7        30.02F
CORPUS CHRISTI PTCLDY    73  66  78 E9        30.00S
KINGSVILLE NAS MOCLDY    71  68  90 NE6       30.00R
COTULLA        CLOUDY    76  63  64 SE8       30.02R
LAREDO         LGT RAIN  73  71  93 E6        30.03F
BROWNSVILLE    CLOUDY    77  71  82 NE8       29.95F
PORT ISABEL    MOCLDY    78  69  73 E13       29.95F
HEBBRONVILLE   CLOUDY    72  67  85 E5        30.02S
MCALLEN        MOCLDY    75  72  90 N6        29.98S
WESLACO        MOCLDY    73  70  89 CALM      29.97S
FALFURRIAS     CLOUDY    73  68  86 NE3       29.99S
EDINBURG       CLOUDY    75  72  89 NE5       29.98S
$$



USA.gov is the U.S. government's official web portal to all federal, state and local government web resources and services.